Location: Favalello
(42.2939°N, 9.2706°E)
Time: 07:06:43
(UTC+00:00)

Cosmos 1536 - Pass Details

Date: 06 December 2019
Orbit: 540 x 559 km, 82.5° (Epoch: 26 January)

Event Time Altitude Azimuth Distance (km) Brightness Sun altitude
Rises 17:04:02 0° 358° (N) 2,740 6.2 -13.2°
Reaches altitude 10° 17:06:19 10° 5° (N) 1,838 5.3 -13.6°
Maximum altitude 17:10:10 43° 78° (ENE) 784 3.1 -14.3°
Drops below altitude 10° 17:13:59 10° 151° (SSE) 1,812 5.3 -14.9°
Sets 17:16:12 0° 158° (SSE) 2,697 6.3 -15.3°
